星链-2494 (STARLINK-2494 )

导读

STARLINK-2494是美国SpaceX星链项目中的一颗低轨通信卫星,于2021年5月9日发射升空,属于星链卫星组网的重要组成部分。它运行在近地轨道,依托星链星座的组网设计,为全球用户提供高速低延迟的互联网接入服务,尤其能支持偏远地区的网络覆盖,助力提升全球互联网普及率,目前该卫星仍在轨承担通信服务任务。

Basic Information
目录编号:
48487
目录名称:
STARLINK-2494
国际标识:
2021-040BM
轨道中心:
EARTH
卫星名称:
星链-2494
卫星全名:
星链-2494 (STARLINK-2494 )
卫星状态:
在轨 (已飞行1945 天)
发射日期:
2021-05-09 UTC
国别 :
美国 (US)
星等 :
--
Orbit Information
数据来源 国际轨道数据
星历时间: 2026-09-05T08:04:21+0800
13小时前
查看轨道信息
半长轴: 6848.855km
偏心率: 0.0001408
轨道倾角: 53.161°
近地点辐角 77.451°
升交点赤经 79.573°
平近点角 282.665°
近地点: 469.753km
远地点: 471.683km
周期: 94.013分钟
每日圈数: 15.317076
Detailed Information
固有亮度:
5
最大亮度:
2.5
卫星平台:
Starlink V1.0
覆盖范围:
全球
运营商:
太空探索技术公司
运营商所在国:
美国
制造商(研发单位):
太空探索技术公司
制造商所在国:
美国
使用方式:
暂无
Satellite Introduction
星链(Starlink)计划是由太空探索技术公司(SpaceX)提出的一个巨型低轨卫星互联网星座项目,计划在2019年至2024年间在太空搭建由约1.2万颗卫星组成的“星链”网络,其中1584颗将部署在地球上空550千米处的近地轨道,并从2020年开始工作。该卫星仍在工作。
2D Orbit Map
3D Orbit Map
Orbit Altitude Analysis Chart
Orbit Inclination Analysis Chart
Orbit Comprehensive Analysis Chart
View Comprehensive Chart
Conjunction Data List
Event ID Objects TCA Miss Dist (km) Collision Risk Probability Collision Risk Index (CRI) Action
CDM_260907-181504-848706-264821
LIME (62648)
2026-09-07T
18:15:04+0000
0.079 km
近距离
1.276133E-3 极高风险 0.97
CDM_260907-142004-848706-264821
LIME (62648)
2026-09-07T
14:20:01+0000
1.021 km
极远距离
2.115594E-5 中风险 0.62
CDM_260906-005004-848706-394121
2026-09-06T
00:50:35+0000
2.056 km
极远距离
2.178016E-6 低风险 0.42
CDM_260906-143404-848706-815321
2026-09-06T
14:34:54+0000
2.905 km
极远距离
1.382971E-6 低风险 0.38
CDM_260907-061504-848706-881321
2026-09-07T
06:15:12+0000
2.702 km
极远距离
9.671289E-7 极低风险 0.35
CDM_260906-200704-848706-579521
2026-09-06T
20:07:04+0000
2.826 km
极远距离
9.543417E-7 极低风险 0.35